[[{"header":{"parameterUnit":"m.s-1","parameterCategory":1,"la1":30.2991,"la2":30.254,"lo1":-89.0895,"lo2":-89.0444,"dy":0.0017,"dx":0.0017,"nx":28,"ny":28,"refTime":"2025-11-15T03:00:00:Z","depth":0,"parameterNumber":2,"parameterNumberName":"U-component_of_WINDS"},"data":[0,0,0,0,0,0,0,0,0,0,0,0,0,0,0,0,0,0,0,0,0,0,0,0,0,0,0,0,0,0,0,0,0,0,0,0,0,0,0,0,0,0,0,0,0,0,0,0,0,0,0,0,0,0,0,0,0,0,0.8755,0.8755,0,0.8789,0.8789,0.8789,0.8765,0.8764,0.8762,0.8761,0.8796,0.8798,0.88,0,0,0,0,0,0,0,0,0,0,0,0,0,0.8667,0.8669,0.8754,0.8755,0.8755,0.8789,0.8789,0.879,0.8765,0.8764,0.8762,0.8761,0.8795,0.8798,0.88,0,0,0,0,0,0,0,0,0,0,0,0,0,0.8703,0.8669,0.8754,0.8747,0.8747,0.8789,0.8789,0.879,0.8765,0.8764,0.8762,0.876,0.8795,0.8797,0.88,0.8851,0,0,0.8809,0.881,0,0,0,0,0,0,0,0,0.8701,0.8707,0.8748,0.8748,0.8747,0.8771,0.8771,0.881,0.8766,0.8758,0.8761,0.876,0.8789,0.8792,0.8802,0.8853,0.8854,0.8809,0.8811,0.8812,0.8813,0,0,0,0,0,0,0,0.8699,0.8705,0.8768,0.8748,0.8748,0.8742,0.8745,0.8778,0.8782,0.8759,0.8757,0.8761,0.8788,0.8799,0.8803,0.8855,0.8809,0.8812,0.8814,0.8815,0.8948,0.895,0,0,0,0,0,0,0.8697,0.8703,0.8767,0.8769,0.872,0.8745,0.8748,0.8765,0.8782,0.8783,0.8763,0.876,0.8795,0.8799,0.8804,0.8865,0.8812,0.8815,0.8817,0.8947,0.8949,0.8951,0,0,0,0,0,0,0.8695,0.8703,0.8766,0.8736,0.8743,0.8748,0.8767,0.8766,0.8777,0.8785,0.8785,0.8773,0.8794,0.88,0.884,0.8865,0.8816,0.8819,0.8944,0.8947,0.895,0.8986,0,0,0,0,0,0,0.8693,0.8703,0.8722,0.8736,0.8745,0.8801,0.8768,0.8768,0.8783,0.8779,0.8795,0.8796,0.8793,0.8835,0.8842,0.8869,0.8821,0.8942,0.8946,0.8949,0.8983,0.899,0.8996,0,0,0,0,0,0.869,0.8731,0.8723,0.8731,0.8769,0.8803,0.8807,0.8804,0.8785,0.8804,0.8809,0.8795,0.8861,0.884,0.8847,0.8875,0.8941,0.8945,0.8949,0.898,0.8989,0.8996,0,0,0,0,0,0,0.872,0.8733,0.8724,0.8771,0.8786,0.8798,0.8823,0.8813,0.8833,0.8829,0.8824,0.8827,0.8869,0.8876,0.8851,0.8925,0.8898,0.8904,0.8919,0.8927,0.8934,0.8931,0.8824,0,0,0,0,0,0.8732,0.8758,0.8768,0.8808,0.8816,0.8818,0.8832,0.8828,0.8843,0.8849,0.8857,0.8872,0.8896,0.8912,0.8934,0.8983,0.8986,0.9006,0.9013,0.9018,0.9023,0.905,0.9059,0.8964,0.8964,0.8964,0,0,0.8757,0.8767,0.8784,0.8814,0.8825,0.8852,0.8824,0.8853,0.8873,0.8854,0.8892,0.8898,0.8914,0.8959,0.8979,0.8966,0.905,0.9023,0.9027,0.903,0.9055,0.9064,0.9072,0.8967,0.8966,0.8966,0,0,0.8817,0.8827,0.8862,0.8873,0.889,0.8891,0.89,0.8914,0.8917,0.8955,0.8941,0.8964,0.9006,0.9018,0.903,0.9093,0.9082,0.9101,0.9136,0.9161,0.9169,0.9175,0.9198,0.9207,0.9106,0.9106,0.9106,0,0.8846,0.8886,0.8881,0.8912,0.8925,0.8909,0.8944,0.8955,0.8979,0.8989,0.8973,0.9025,0.9035,0.9082,0.9098,0.9107,0.9117,0.9099,0.9168,0.9175,0.9181,0.9203,0.9211,0.9108,0.9108,0.9108,0.9108,0,0.8921,0.8949,0.8975,0.8998,0.9015,0.9047,0.9047,0.9064,0.9059,0.9061,0.91,0.9111,0.9136,0.9147,0.9141,0.9193,0.9185,0.9169,0.9142,0.9192,0.9213,0.9221,0.9112,0.9111,0.911,0.9109,0,0,0.9001,0.9021,0.903,0.9041,0.9058,0.9079,0.9111,0.9135,0.915,0.9167,0.9193,0.9229,0.9214,0.9227,0.9223,0.9246,0.9296,0.9227,0.9228,0.924,0.9354,0.9366,0.9376,0.9288,0.929,0.9291,0.9353,0,0.9061,0.9117,0.9114,0.9166,0.9192,0.9177,0.9204,0.9218,0.9221,0.9243,0.9247,0.9272,0.9251,0.9259,0.9281,0.9285,0.9319,0.9281,0.9313,0.9314,0.931,0.9387,0.9399,0.9457,0.9361,0.9362,0.9363,0,0.914,0.9159,0.9214,0.9228,0.9238,0.9264,0.9285,0.9307,0.9321,0.9322,0.9337,0.9329,0.9361,0.9333,0.9377,0.9351,0.9364,0.9368,0.937,0.9373,0.9342,0.9392,0.9476,0.9485,0.9376,0.9375,0.9374,0,0.9192,0.9232,0.9271,0.928,0.9296,0.9314,0.9322,0.9335,0.935,0.9369,0.9378,0.9401,0.9413,0.943,0.9428,0.9408,0.9473,0.9445,0.9475,0.9475,0.949,0.9489,0.9577,0.9497,0.9497,0.9497,0.9497,0,0.9261,0.9295,0.9295,0.9318,0.9356,0.9352,0.9389,0.9395,0.9407,0.9431,0.9419,0.9442,0.9438,0.9461,0.9459,0.9496,0.9501,0.9503,0.9502,0.9504,0.9504,0.9513,0.9509,0.9499,0.9499,0.9498,0.9498,0,0.9326,0.9327,0.9368,0.9381,0.9384,0.9412,0.9422,0.9445,0.9447,0.9478,0.9484,0.9488,0.9514,0.9514,0.9544,0.9543,0.9588,0.9582,0.9583,0.9582,0.9612,0.961,0.9709,0.9722,0.9634,0.9635,0.9636,0,0.937,0.9396,0.9412,0.9427,0.9436,0.9461,0.9476,0.9472,0.9488,0.9507,0.9527,0.9552,0.9572,0.9615,0.962,0.9643,0.9638,0.9671,0.9641,0.9643,0.9639,0.9638,0.964,0.9677,0.9678,0.9679,0.968,0,0.9448,0.9447,0.9469,0.9492,0.951,0.9527,0.9543,0.9557,0.9554,0.9573,0.96,0.9616,0.9646,0.9671,0.9693,0.9701,0.969,0.9689,0.9697,0.97,0.97,0.9701,0.96,0.9687,0.9686,0.9686,0.9685,0.9685,0.9504,0.9526,0.9541,0.9566,0.9577,0.9593,0.9614,0.9619,0.9642,0.9667,0.9663,0.9693,0.9707,0.9735,0.9745,0.9768,0.9757,0.9768,0.9772,0.9775,0.9778,0.9696,0.9772,0.9772,0.9772,0.9772,0.9772,0,0.9581,0.9589,0.9612,0.9635,0.9655,0.9643,0.966,0.9678,0.9704,0.9719,0.9739,0.977,0.9794,0.9801,0.9825,0.9842,0.9838,0.9848,0.9847,0.9849,0.9787,0.9778,0.9851,0.9851,0.9851,0.9851,0.9851,0.9851,0.9623,0.9661,0.9662,0.9705,0.9713,0.9743,0.9754,0.9768,0.9779,0.9814,0.9835,0.9839,0.985,0.9875,0.9896,0.9898,0.9907,0.992,0.992,0.9861,0.9854,0.9846,0.9837,0.9922,0.9922,0.998,0.998,0.9981]},{"header":{"parameterUnit":"m.s-1","parameterCategory":1,"la1":30.2991,"la2":30.254,"lo1":-89.0895,"lo2":-89.0444,"dy":0.0017,"dx":0.0017,"nx":28,"ny":28,"refTime":"2025-11-15T03:00:00:Z","depth":0,"parameterNumber":3,"parameterNumberName":"V-component_of_WINDS"},"data":[0,0,0,0,0,0,0,0,0,0,0,0,0,0,0,0,0,0,0,0,0,0,0,0,0,0,0,0,0,0,0,0,0,0,0,0,0,0,0,0,0,0,0,0,0,0,0,0,0,0,0,0,0,0,0,0,0,0,2.8761,2.876,0,2.8692,2.8691,2.869,2.8628,2.8628,2.8627,2.8626,2.8552,2.8551,2.8549,0,0,0,0,0,0,0,0,0,0,0,0,0,2.8836,2.8835,2.8761,2.876,2.8759,2.8692,2.8691,2.869,2.8629,2.8628,2.8627,2.8626,2.8552,2.8551,2.8549,0,0,0,0,0,0,0,0,0,0,0,0,0,2.8789,2.8834,2.8761,2.872,2.8716,2.8692,2.8691,2.869,2.8629,2.8628,2.8627,2.8626,2.8553,2.8551,2.8549,2.8558,0,0,2.8543,2.8542,0,0,0,0,0,0,0,0,2.8791,2.8786,2.8727,2.8723,2.8718,2.8668,2.869,2.8646,2.8629,2.8662,2.8626,2.8625,2.8591,2.8586,2.8575,2.8555,2.8552,2.8543,2.8542,2.8541,2.854,0,0,0,0,0,0,0,2.8795,2.8789,2.8733,2.8727,2.8721,2.8704,2.8697,2.8681,2.8633,2.8659,2.8654,2.8647,2.8588,2.8577,2.8573,2.8551,2.8543,2.8541,2.854,2.8539,2.8534,2.8535,0,0,0,0,0,0,2.8805,2.8792,2.8736,2.8731,2.8753,2.8704,2.8695,2.8685,2.8633,2.8624,2.8648,2.8644,2.8581,2.8575,2.857,2.8577,2.8541,2.8539,2.8538,2.8533,2.8534,2.8535,0,0,0,0,0,0,2.8807,2.88,2.8738,2.876,2.8751,2.8704,2.8693,2.8684,2.8673,2.8625,2.8616,2.8646,2.858,2.8573,2.8562,2.8574,2.8538,2.8536,2.8531,2.8533,2.8534,2.8592,0,0,0,0,0,0,2.8809,2.8801,2.8805,2.8761,2.875,2.8733,2.8694,2.8684,2.867,2.8665,2.862,2.8612,2.8579,2.8565,2.856,2.857,2.8535,2.853,2.8532,2.8534,2.8589,2.8595,2.8601,0,0,0,0,0,2.8812,2.8824,2.8806,2.88,2.8754,2.8734,2.8727,2.869,2.8672,2.8674,2.8644,2.8613,2.8574,2.8565,2.8558,2.8568,2.8529,2.8531,2.8534,2.8586,2.8594,2.8601,0,0,0,0,0,0,2.887,2.8817,2.8797,2.8795,2.8769,2.8723,2.8726,2.8699,2.8677,2.8673,2.8626,2.8617,2.8611,2.8588,2.8579,2.8574,2.8547,2.8548,2.8589,2.8596,2.8602,2.8608,2.8533,0,0,0,0,0,2.8883,2.8871,2.8825,2.8828,2.8816,2.8774,2.8763,2.8736,2.8707,2.8696,2.8664,2.8636,2.8617,2.8605,2.8585,2.8585,2.8574,2.8589,2.8595,2.86,2.8602,2.8599,2.8605,2.8543,2.8543,2.8542,0,0,2.8908,2.8878,2.8874,2.8839,2.8816,2.8804,2.8765,2.8754,2.8744,2.8694,2.8682,2.8657,2.8623,2.8618,2.8613,2.8598,2.8617,2.8603,2.8608,2.8606,2.8602,2.8608,2.8614,2.8544,2.8544,2.8544,0,0,2.8949,2.8926,2.8925,2.8903,2.8869,2.8841,2.8841,2.8799,2.8781,2.8768,2.873,2.8717,2.8686,2.8663,2.8647,2.8679,2.865,2.8673,2.8705,2.8703,2.8708,2.8712,2.8723,2.8728,2.8675,2.8675,2.8675,0,2.8985,2.8967,2.8928,2.892,2.8905,2.886,2.8858,2.8838,2.8799,2.8789,2.8774,2.8733,2.8707,2.8695,2.8703,2.8692,2.8689,2.8678,2.8711,2.8715,2.8718,2.8728,2.8732,2.8678,2.8678,2.8678,2.8677,0,2.9013,2.9001,2.9004,2.8969,2.8954,2.8949,2.8908,2.8898,2.8873,2.8846,2.8833,2.88,2.8772,2.8767,2.8741,2.8751,2.8743,2.872,2.8692,2.8728,2.8736,2.8739,2.8683,2.8682,2.8681,2.868,0,0,2.9088,2.9031,2.9033,2.9016,2.8976,2.8965,2.8957,2.8931,2.8923,2.8898,2.8889,2.8864,2.8842,2.8824,2.8795,2.8794,2.8821,2.877,2.8769,2.8781,2.8829,2.8847,2.8852,2.8802,2.8802,2.8803,2.8832,0,2.9122,2.9107,2.9072,2.9067,2.9055,2.9012,2.9005,2.8979,2.8953,2.8938,2.8909,2.8891,2.8864,2.8853,2.885,2.8819,2.883,2.8816,2.8792,2.8792,2.8802,2.8856,2.8875,2.8904,2.8835,2.8835,2.8836,0,2.916,2.9138,2.9133,2.9093,2.9086,2.9081,2.9054,2.904,2.9009,2.899,2.8971,2.8939,2.8928,2.8902,2.8885,2.8876,2.8864,2.8847,2.8848,2.8844,2.8816,2.8853,2.8912,2.8917,2.8841,2.884,2.884,0,2.9215,2.9184,2.9177,2.9164,2.9117,2.9114,2.9094,2.9062,2.9048,2.9024,2.9015,2.8989,2.8975,2.8956,2.8918,2.8903,2.8905,2.8876,2.8888,2.8889,2.889,2.889,2.8948,2.8883,2.8883,2.8883,2.8883,0,2.9256,2.9254,2.9201,2.9197,2.9193,2.9152,2.9149,2.9125,2.9097,2.9086,2.9046,2.9037,2.8988,2.8972,2.8942,2.8932,2.8926,2.891,2.8902,2.8913,2.8915,2.8904,2.8901,2.8884,2.8884,2.8884,2.8883,0,2.9317,2.9281,2.927,2.9227,2.9216,2.9215,2.9177,2.9171,2.9143,2.913,2.9124,2.908,2.9059,2.902,2.8988,2.8968,2.8964,2.895,2.8975,2.897,2.8984,2.8983,2.9036,2.9041,2.8974,2.8975,2.8976,0,2.9345,2.9343,2.93,2.929,2.9272,2.9258,2.9244,2.9203,2.919,2.9154,2.9151,2.9128,2.9107,2.9077,2.9041,2.9016,2.9001,2.9021,2.8997,2.9008,2.9001,2.9001,2.9,2.9027,2.9028,2.9028,2.9029,0,2.94,2.9382,2.9365,2.9341,2.9326,2.9305,2.9282,2.9276,2.9229,2.9216,2.9196,2.918,2.9148,2.9125,2.9095,2.9072,2.9043,2.9037,2.9038,2.905,2.9064,2.9056,2.899,2.9036,2.9035,2.9035,2.9034,2.9034,2.9445,2.9441,2.941,2.9391,2.937,2.9349,2.9341,2.9312,2.9295,2.9266,2.9243,2.9224,2.9192,2.9149,2.9128,2.9112,2.9098,2.91,2.91,2.9101,2.9106,2.9067,2.9106,2.9106,2.9106,2.9106,2.9105,0,2.9497,2.9475,2.9458,2.9428,2.9413,2.9388,2.936,2.9349,2.9334,2.9307,2.9288,2.9263,2.9241,2.9204,2.9178,2.9172,2.9158,2.9166,2.9166,2.9161,2.912,2.9122,2.9179,2.9179,2.9179,2.9179,2.9179,2.9179,2.9522,2.9514,2.9493,2.9473,2.9451,2.9433,2.942,2.94,2.9378,2.9354,2.9335,2.9311,2.928,2.9251,2.9229,2.9219,2.9211,2.9224,2.9209,2.9171,2.9164,2.9158,2.9159,2.9223,2.9223,2.9252,2.9252,2.9252]}]]